Aérodrome :
LOGIN :

S'inscrire | Disclaimer

   EN    FR    IT 

 










Légende :    VFR   VFR Marginal   IFR   IFR Intensif   IFR Très Intensif
Visi : 
Plafond : 
>= 8 km
>= 3000ft
5 à 8 km
1000 à 3000 ft
1500m à 5 km
500 à 1000 ft
800 à 1500m
200 à 500 ft
< 800m
< 200 ft
Symboles :   Orages  Brouillard  Fortes neiges  Fortes précipitations  Vent > 20 kt
SIGMETs :   Divers  Orages  Givrage  Turbulence  Onde Orograph.  Cendres Volcan.






- Altitude de l'aérodrome : 306 ft
- Code IATA : EMA


EGNX - Nottingham East Midlands

DERNIER METAR :
  • 160520Z 21007KT CAVOK 08/07 Q0997

METARs EXPIRÉS :
  • 160450Z 22006KT 9999 FEW042 08/07 Q0997
  • 160420Z 21007KT 9999 FEW043 08/07 Q0997
  • 160350Z 22007KT 9999 FEW032 08/07 Q0997
  • 160320Z 21006KT 9999 SCT032 08/07 Q0997

TAF TAF EGNX
Valide du 16 à 06h jusqu'au 17 à 06h UTC


160457Z 1606/1706 VRB04KT 9999 FEW042
BECMG 1606/1610 19010KT
PROB30
TEMPO 1606/1608 5000 BR BKN003
TEMPO 1609/1620 7000 SHRA BKN009
PROB40
TEMPO 1609/1620 3000 +SHRA TSGS BKN015CB
BECMG 1612/1615 VRB04KT
PROB30
TEMPO 1620/1624 7000 SHRA BKN009
TEMPO 1700/1706 6000 BKN007
ATIS : +44 1332 852 852 (ext 3201)



MET'MAP, la Météo Aéronautique d'un coup d'oeil ! - Copyright ORBIFLY Décembre 2007 - Disclaimer

ORBIFLY MET'MAP TEAM :

Programmation & Développement : Alexandra Zaïnal
Sur une idée originale de : Baudouin d'Aumeries
Assistance à la programmation : Marc-Olivier Méhu
Soutien technique & logistique : Manuel Goepfert

Contact : metmap@orbifly.com




SOURCES & CREDITS :

   NOAA